Home   Weather   Kashgar   Past weeks

Flag for China Past Weather in Kashgar, Xinjiang, China — Yesterday and Last 2 Weeks

Now
68 °F

Clear.


Feels Like: 68 °F
Forecast: 56 / 83 °F
Wind: 13 mph from Northwest

Location: Kashi Airport

Current Time: Apr 27, 2017 at 1:47:01 am

Latest Report: Apr 27, 2017 at 1:00 am


Visibility: 10 mi

Pressure: 29.95 "Hg (25.74 "Hg at 1298m altitude)

Humidity: 13%

Dew Point: 16 °F

Location of KashgarLocation

Past Weather in Kashgar — Graph

°F

Kashgar Temperature Yesterday

Maximum temperature yesterday: 82 °F (at 6:00 pm)
Minimum temperature yesterday: 54 °F (at 8:00 am)
Average temperature yesterday: 68 °F

High & Low Weather Summary for the Past Weeks

 TemperatureHumidityPressure
High84 °F (Apr 17, 7:00 pm)82% (Apr 19, 10:00 am)30.27 "Hg (Apr 19, 10:00 am)
Low50 °F (Apr 15, 7:00 am)4% (Apr 14, 11:00 pm)29.80 "Hg (Apr 17, 8:00 pm)
Average64 °F31%30.06 "Hg
* Reported Apr 12 12:00 am — Apr 27 12:00 am, Kashgar, Weather by CustomWeather, © 2017

Note: Actual official high and low records may vary slightly from our data, if they occured in-between our weather recording intervals... More about our weather records

Advertising

Kashgar Weather History for the Previous 24 Hours

Scroll right to see more
 ConditionsComfort  
Time TempWeatherWind HumidityBarometerVisibility
12:00 am
Thu, Apr 27
70 °FClear.3 mph16%29.95 "Hg10 mi
11:00 pm
Wed, Apr 26
70 °FClear.3 mph20%29.95 "Hg10 mi
10:00 pm75 °FClear.No wind14%29.92 "Hg10 mi
9:00 pm79 °FClear.6 mph12%29.92 "Hg10 mi
8:00 pm81 °FClear.6 mph10%29.92 "Hg10 mi
7:00 pm81 °FPassing clouds.8 mph11%29.92 "HgN/A
6:00 pm82 °FSunny.3 mph11%29.92 "Hg10 mi
5:00 pm79 °FSunny.3 mph12%29.95 "Hg10 mi
4:00 pm79 °FPassing clouds.3 mph11%29.98 "HgN/A
3:00 pm75 °FPassing clouds.6 mph16%29.98 "HgN/A
2:00 pm75 °FSunny.1 mph18%30.01 "Hg10 mi
1:00 pm72 °FPassing clouds.6 mph22%30.04 "HgN/A
12:00 pm68 °FPassing clouds.3 mph23%30.04 "HgN/A
11:00 am64 °FPassing clouds.3 mph26%30.07 "HgN/A
10:00 am63 °FSunny.6 mph25%30.07 "Hg10 mi
9:00 am57 °FSunny.6 mph33%30.07 "Hg10 mi
8:00 am54 °FSunny.8 mph41%30.07 "Hg10 mi
7:00 am55 °FSunny.6 mph41%30.07 "Hg10 mi
6:00 am55 °FClear.6 mph44%30.07 "Hg10 mi
5:00 am57 °FClear.3 mph41%30.09 "Hg10 mi
4:00 am59 °FRefreshingly cool.3 mph42%30.09 "Hg6 mi
3:00 am59 °FRefreshingly cool.3 mph39%30.12 "Hg6 mi
2:00 am63 °FMild.6 mph32%30.15 "Hg6 mi
1:00 am64 °FClear.3 mph30%30.15 "Hg10 mi
Weather by CustomWeather, © 2017

See weather overviewHow to use our weather pages